[[{"header":{"parameterUnit":"m.s-1","parameterCategory":2,"la1":30.2991,"la2":30.254,"lo1":-89.0895,"lo2":-89.0444,"dy":0.0017,"dx":0.0017,"nx":28,"ny":28,"refTime":"2024-06-27T21:00:00:Z","depth":"0","parameterNumber":2,"parameterNumberName":"U-component_of_CURRENTS"},"data":[0,0,0,0,0,0,0,0,0,0,0,0,0,0,0,0,0,0,0,0,0,0,0,0,0,0,0,0,0,0,0,0,0,0,0,0,0,0,0,0,0,0,0,0,0,0,0,0,0,0,0,0,0,0,0,0,0,0,0.2398,0.24,0,0.246,0.2459,0.2459,0.2427,0.2427,0.2426,0.2425,0.2407,0.2407,0.2407,0,0,0,0,0,0,0,0,0,0,0,0,0,0.2166,0.217,0.2398,0.24,0.2402,0.246,0.2459,0.2459,0.2427,0.2427,0.2426,0.2425,0.2407,0.2407,0.2407,0,0,0,0,0,0,0,0,0,0,0,0,0,0.2241,0.2171,0.2398,0.2401,0.2402,0.246,0.2459,0.2459,0.2428,0.2427,0.2426,0.2425,0.2407,0.2407,0.2407,0.2428,0,0,0.2408,0.2408,0,0,0,0,0,0,0,0,0.2237,0.2248,0.2399,0.2401,0.2403,0.2444,0.2371,0.2448,0.2428,0.2407,0.2425,0.2424,0.242,0.2419,0.2418,0.2427,0.2426,0.2408,0.2408,0.2408,0.2408,0,0,0,0,0,0,0,0.2232,0.2245,0.2412,0.2401,0.2403,0.237,0.2379,0.2385,0.2408,0.2409,0.2409,0.2433,0.2418,0.2418,0.2418,0.2426,0.2408,0.2408,0.2408,0.2408,0.2458,0.246,0,0,0,0,0,0,0.2253,0.2242,0.241,0.2415,0.2328,0.2376,0.2385,0.2423,0.241,0.2411,0.2434,0.2432,0.2418,0.2417,0.2417,0.2419,0.2408,0.2408,0.2408,0.2457,0.2459,0.246,0,0,0,0,0,0,0.2247,0.2267,0.2408,0.2336,0.2353,0.2383,0.2424,0.2425,0.241,0.2432,0.2429,0.2417,0.2418,0.2417,0.2415,0.2419,0.2408,0.2408,0.2456,0.2458,0.2459,0.2438,0,0,0,0,0,0,0.2241,0.2265,0.2267,0.2339,0.2358,0.2401,0.2426,0.2427,0.2433,0.2429,0.2418,0.2416,0.2417,0.2414,0.2415,0.2419,0.2408,0.2454,0.2457,0.2459,0.2437,0.2439,0.244,0,0,0,0,0,0.2232,0.2241,0.2267,0.2286,0.2372,0.2401,0.2404,0.2415,0.2433,0.2401,0.2422,0.2415,0.243,0.2415,0.2415,0.242,0.2453,0.2456,0.2459,0.2436,0.2438,0.244,0,0,0,0,0,0,0.2112,0.2243,0.2271,0.2312,0.2339,0.2398,0.2377,0.2409,0.2403,0.2401,0.2421,0.2419,0.2424,0.2431,0.2415,0.2447,0.2445,0.2448,0.2428,0.243,0.2432,0.2484,0.2408,0,0,0,0,0,0.2102,0.2163,0.2243,0.227,0.2279,0.2329,0.2338,0.2359,0.2387,0.2381,0.2394,0.2416,0.2441,0.2439,0.2452,0.2459,0.2501,0.2469,0.2471,0.2472,0.2519,0.2587,0.2599,0.2469,0.2469,0.2469,0,0,0.2077,0.2147,0.2185,0.2251,0.2272,0.2289,0.2326,0.2338,0.2357,0.2383,0.2386,0.2414,0.2446,0.2459,0.2462,0.2458,0.2523,0.2476,0.2476,0.2523,0.2591,0.2604,0.2615,0.2471,0.2471,0.247,0,0,0.2073,0.2099,0.2156,0.2167,0.2215,0.2237,0.2241,0.2295,0.2303,0.233,0.2369,0.2417,0.2421,0.2471,0.2494,0.252,0.253,0.2504,0.2548,0.2611,0.2623,0.2634,0.2663,0.2677,0.2502,0.2502,0.2502,0,0.2044,0.2108,0.2158,0.2185,0.2179,0.2215,0.2221,0.2245,0.2298,0.2327,0.2319,0.2434,0.2445,0.2527,0.254,0.2526,0.2549,0.2527,0.2613,0.2625,0.2637,0.2665,0.268,0.2501,0.2501,0.2501,0.2501,0,0.2073,0.2103,0.2108,0.2171,0.2158,0.2154,0.2196,0.2203,0.2229,0.229,0.2367,0.2425,0.2512,0.2511,0.2533,0.263,0.2612,0.2604,0.2604,0.2649,0.2674,0.2691,0.25,0.25,0.25,0.2501,0,0,0.2097,0.2136,0.2135,0.2139,0.2136,0.214,0.2147,0.2187,0.2235,0.2297,0.2382,0.2467,0.2547,0.2587,0.2634,0.2696,0.2777,0.2687,0.269,0.271,0.2893,0.2734,0.2736,0.2769,0.2773,0.2776,0.2862,0,0.2104,0.2141,0.2143,0.2133,0.214,0.2124,0.2134,0.2175,0.2221,0.2307,0.2424,0.2515,0.256,0.2616,0.2699,0.278,0.2827,0.2754,0.2856,0.286,0.2709,0.2754,0.259,0.2641,0.2879,0.2882,0.2884,0,0.2125,0.2153,0.2148,0.2135,0.2129,0.2123,0.2123,0.214,0.2258,0.2307,0.2448,0.2546,0.2716,0.2712,0.2913,0.2859,0.2889,0.2927,0.293,0.2817,0.2734,0.2646,0.2662,0.2618,0.2909,0.2907,0.2905,0,0.2109,0.2134,0.2119,0.2108,0.2117,0.2109,0.2098,0.2163,0.2191,0.2336,0.2399,0.2607,0.2713,0.2838,0.2951,0.2938,0.3115,0.3098,0.2977,0.2965,0.2871,0.2842,0.286,0.3201,0.3201,0.3201,0.3201,0,0.2084,0.2084,0.2126,0.2115,0.2128,0.211,0.2123,0.2159,0.2231,0.2284,0.2429,0.253,0.2747,0.2875,0.2969,0.3034,0.3137,0.3015,0.2992,0.2849,0.282,0.2812,0.2808,0.3204,0.3203,0.3203,0.3202,0,0.2059,0.2072,0.2091,0.2112,0.2126,0.2131,0.2123,0.2145,0.2203,0.2281,0.233,0.2506,0.2673,0.2839,0.302,0.3018,0.3004,0.3073,0.287,0.282,0.2642,0.2642,0.2508,0.2468,0.2986,0.2982,0.298,0,0.2058,0.2068,0.2101,0.2125,0.2135,0.2144,0.2147,0.2155,0.2162,0.2259,0.2299,0.2468,0.2566,0.2763,0.2833,0.294,0.2894,0.2768,0.2717,0.2628,0.2616,0.2476,0.2446,0.2583,0.2577,0.2572,0.2568,0,0.2079,0.2079,0.2081,0.2138,0.215,0.2135,0.2129,0.2132,0.2127,0.2171,0.2218,0.2292,0.2452,0.2505,0.2595,0.2629,0.2604,0.2667,0.2662,0.2378,0.215,0.2099,0.2514,0.2527,0.2531,0.2534,0.2536,0.2538,0.2097,0.2108,0.2111,0.2143,0.2145,0.2102,0.2056,0.2039,0.2013,0.2,0.2082,0.2074,0.2174,0.2302,0.2327,0.225,0.231,0.2189,0.2222,0.2106,0.1983,0.227,0.2188,0.219,0.2191,0.2193,0.2195,0,0.2113,0.2097,0.2129,0.2108,0.2058,0.2075,0.2017,0.1941,0.1869,0.1842,0.182,0.1778,0.1806,0.1899,0.1913,0.1835,0.175,0.1806,0.1644,0.1667,0.2012,0.191,0.1657,0.1657,0.1657,0.1657,0.1657,0.1657,0.2113,0.2091,0.2087,0.2019,0.1995,0.1868,0.1812,0.1739,0.1669,0.1548,0.1449,0.1424,0.1554,0.1632,0.1627,0.1593,0.1491,0.133,0.1446,0.1763,0.1803,0.1841,0.1745,0.1462,0.1462,0.0981,0.0978,0.0975]},{"header":{"parameterUnit":"m.s-1","parameterCategory":2,"la1":30.2991,"la2":30.254,"lo1":-89.0895,"lo2":-89.0444,"dy":0.0017,"dx":0.0017,"nx":28,"ny":28,"refTime":"2024-06-27T21:00:00:Z","depth":"0","parameterNumber":3,"parameterNumberName":"V-component_of_CURRENTS"},"data":[0,0,0,0,0,0,0,0,0,0,0,0,0,0,0,0,0,0,0,0,0,0,0,0,0,0,0,0,0,0,0,0,0,0,0,0,0,0,0,0,0,0,0,0,0,0,0,0,0,0,0,0,0,0,0,0,0,0,0.094,0.0941,0,0.099,0.0991,0.0991,0.1013,0.1013,0.1013,0.1013,0.0949,0.0948,0.0946,0,0,0,0,0,0,0,0,0,0,0,0,0,0.0851,0.0853,0.094,0.0941,0.0941,0.099,0.0991,0.0992,0.1013,0.1013,0.1013,0.1012,0.095,0.0948,0.0946,0,0,0,0,0,0,0,0,0,0,0,0,0,0.0895,0.0853,0.094,0.0957,0.0959,0.099,0.0991,0.0992,0.1013,0.1013,0.1013,0.1012,0.0951,0.0948,0.0946,0.0938,0,0,0.0939,0.0938,0,0,0,0,0,0,0,0,0.0893,0.0899,0.0954,0.0956,0.0958,0.0994,0.0936,0.0968,0.1013,0.0994,0.1013,0.1012,0.0953,0.0951,0.0964,0.0935,0.0932,0.0939,0.0938,0.0937,0.0936,0,0,0,0,0,0,0,0.089,0.0897,0.0961,0.0955,0.0957,0.0957,0.0964,0.0943,0.0973,0.0996,0.0997,0.1001,0.0954,0.0966,0.0962,0.0931,0.0939,0.0937,0.0936,0.0935,0.0867,0.0867,0,0,0,0,0,0,0.0882,0.0894,0.096,0.0963,0.0923,0.0959,0.0966,0.0984,0.0976,0.0975,0.1001,0.1001,0.097,0.0965,0.096,0.096,0.0937,0.0935,0.0933,0.0867,0.0867,0.0866,0,0,0,0,0,0,0.0881,0.0888,0.0958,0.0927,0.0936,0.0961,0.098,0.0985,0.0999,0.0981,0.0978,0.101,0.097,0.0963,0.0958,0.0957,0.0934,0.0931,0.0868,0.0867,0.0867,0.0951,0,0,0,0,0,0,0.0878,0.0888,0.0897,0.0927,0.0937,0.098,0.0981,0.0986,0.1001,0.1002,0.0988,0.0982,0.0969,0.0961,0.0955,0.0953,0.093,0.0869,0.0868,0.0867,0.0949,0.0954,0.0958,0,0,0,0,0,0.0875,0.0895,0.0898,0.0905,0.0951,0.0981,0.0986,0.1003,0.1002,0.1014,0.101,0.0983,0.095,0.096,0.0953,0.095,0.0869,0.0868,0.0867,0.0947,0.0953,0.0958,0,0,0,0,0,0,0.0849,0.09,0.0903,0.0934,0.0954,0.0984,0.0989,0.1004,0.1014,0.1011,0.0993,0.0988,0.0982,0.0948,0.0959,0.0923,0.0897,0.0895,0.0961,0.0966,0.097,0.102,0.0928,0,0,0,0,0,0.0849,0.0894,0.0916,0.0944,0.0942,0.0964,0.0977,0.0995,0.1007,0.1013,0.1007,0.0986,0.0971,0.0957,0.0941,0.0926,0.0914,0.091,0.0914,0.0918,0.0951,0.0929,0.0935,0.0863,0.0863,0.0863,0,0,0.0843,0.0882,0.0901,0.0944,0.0951,0.0965,0.0971,0.0995,0.1026,0.1,0.1027,0.1008,0.0972,0.0968,0.0957,0.094,0.093,0.0917,0.0922,0.0953,0.0928,0.0936,0.0943,0.0862,0.0863,0.0863,0,0,0.0852,0.0882,0.0906,0.0929,0.0956,0.0974,0.0979,0.1008,0.1033,0.1056,0.1044,0.1039,0.1007,0.1001,0.0986,0.0997,0.0961,0.0965,0.1024,0.1,0.1007,0.1013,0.1009,0.1014,0.0958,0.0958,0.0959,0,0.0818,0.0876,0.0913,0.0936,0.0954,0.0974,0.0986,0.1021,0.1057,0.1086,0.1067,0.1067,0.1029,0.1043,0.1048,0.1011,0.0998,0.1013,0.101,0.1016,0.1021,0.1015,0.1019,0.0962,0.0962,0.0961,0.0961,0,0.0849,0.0882,0.0892,0.0937,0.0965,0.0983,0.1024,0.1061,0.1082,0.1121,0.1155,0.1132,0.1137,0.1104,0.1081,0.1094,0.1075,0.1029,0.1009,0.1034,0.1025,0.1028,0.0968,0.0967,0.0965,0.0964,0,0,0.0804,0.0883,0.089,0.0925,0.0968,0.1007,0.1049,0.1106,0.1162,0.1189,0.1256,0.1231,0.1245,0.123,0.1199,0.1175,0.1185,0.1123,0.1119,0.1142,0.1153,0.1127,0.1128,0.1136,0.1137,0.1138,0.1135,0,0.0796,0.0844,0.0891,0.0951,0.0979,0.1024,0.1077,0.115,0.1197,0.1273,0.1285,0.1321,0.1286,0.1287,0.1273,0.1216,0.1197,0.1192,0.1107,0.1105,0.1098,0.1132,0.1206,0.1209,0.1138,0.1138,0.1139,0,0.0826,0.0864,0.0897,0.0999,0.1009,0.1048,0.1153,0.1207,0.131,0.135,0.1409,0.1428,0.1452,0.1388,0.135,0.1349,0.1272,0.1211,0.1208,0.1166,0.1086,0.1169,0.1217,0.1143,0.1143,0.1143,0.1143,0,0.0834,0.0894,0.0929,0.0956,0.1043,0.1083,0.113,0.1232,0.1303,0.1407,0.1462,0.1509,0.152,0.1467,0.1381,0.136,0.1315,0.1258,0.1168,0.1166,0.1207,0.1206,0.1198,0.1213,0.1213,0.1213,0.1213,0,0.0842,0.0876,0.0943,0.0967,0.1046,0.111,0.1199,0.1261,0.1366,0.1461,0.151,0.1577,0.1531,0.1514,0.1428,0.1336,0.1353,0.1211,0.117,0.1235,0.1237,0.1153,0.1123,0.1213,0.1213,0.1213,0.1213,0,0.0831,0.0866,0.0933,0.1017,0.1055,0.1117,0.1227,0.1301,0.1389,0.1511,0.1547,0.1626,0.1606,0.1554,0.1449,0.1377,0.1304,0.1228,0.1323,0.1294,0.1144,0.1116,0.113,0.1277,0.1159,0.1158,0.1158,0,0.08,0.0839,0.0957,0.1017,0.1045,0.1139,0.1209,0.1307,0.1386,0.1539,0.16,0.163,0.1679,0.1567,0.145,0.1335,0.1289,0.1275,0.124,0.1176,0.1114,0.1118,0.1246,0.1331,0.1332,0.1333,0.1333,0,0.075,0.0809,0.0861,0.0988,0.1075,0.118,0.1279,0.135,0.1477,0.1585,0.1697,0.1748,0.1687,0.1625,0.1468,0.1389,0.1343,0.1284,0.1199,0.1252,0.1278,0.1387,0.1295,0.1341,0.134,0.1339,0.1339,0.1339,0.0702,0.0742,0.0842,0.0961,0.1069,0.1206,0.1286,0.1402,0.1538,0.1701,0.1737,0.1799,0.1727,0.1554,0.1466,0.131,0.1361,0.1241,0.1216,0.1226,0.137,0.1299,0.1293,0.1292,0.1291,0.1291,0.129,0,0.0655,0.0722,0.0815,0.0968,0.1076,0.1162,0.1327,0.1422,0.1571,0.1689,0.1791,0.1792,0.1664,0.1523,0.1335,0.1246,0.1347,0.1191,0.123,0.1376,0.1282,0.1288,0.1303,0.1303,0.1303,0.1303,0.1303,0.1303,0.0644,0.07,0.0762,0.093,0.1051,0.1199,0.13,0.1456,0.1561,0.1735,0.1786,0.1846,0.1798,0.1326,0.1129,0.1132,0.12,0.1149,0.1221,0.1092,0.1094,0.1097,0.1093,0.1067,0.1067,0.1434,0.1436,0.1437]}],[{"header":{"parameterUnit":"m.s-1","parameterCategory":2,"la1":30.2991,"la2":30.254,"lo1":-89.0895,"lo2":-89.0444,"dy":0.0017,"dx":0.0017,"nx":28,"ny":28,"refTime":"2024-06-27T21:00:00:Z","depth":"2","parameterNumber":2,"parameterNumberName":"U-component_of_CURRENTS"},"data":[0,0,0,0,0,0,0,0,0,0,0,0,0,0,0,0,0,0,0,0,0,0,0,0,0,0,0,0,0,0,0,0,0,0,0,0,0,0,0,0,0,0,0,0,0,0,0,0,0,0,0,0,0,0,0,0,0,0,0.1038,0.1037,0,0.0925,0.0923,0.0921,0.111,0.1118,0.1125,0.1131,0.1316,0.1314,0.1312,0,0,0,0,0,0,0,0,0,0,0,0,0,0.1005,0.1007,0.1038,0.1037,0.1036,0.0925,0.0923,0.0921,0.1109,0.1118,0.1126,0.1135,0.1316,0.1314,0.1312,0,0,0,0,0,0,0,0,0,0,0,0,0,0.0963,0.1007,0.1038,0.1122,0.1129,0.0926,0.0923,0.092,0.1107,0.1118,0.1129,0.1139,0.1317,0.1314,0.1312,0.1084,0,0,0.1304,0.1303,0,0,0,0,0,0,0,0,0.0965,0.0963,0.1111,0.1116,0.1124,0.1049,0.0979,0.0992,0.1105,0.1108,0.1132,0.1144,0.125,0.1254,0.1195,0.1092,0.11,0.1304,0.1302,0.1301,0.1301,0,0,0,0,0,0,0,0.0969,0.0967,0.0986,0.1109,0.1117,0.1025,0.1033,0.0978,0.1121,0.1109,0.1124,0.1119,0.1257,0.1196,0.1202,0.1103,0.1304,0.1302,0.13,0.1299,0.1449,0.1454,0,0,0,0,0,0,0.1006,0.0971,0.099,0.0984,0.1077,0.1019,0.1028,0.1056,0.1116,0.1135,0.111,0.1128,0.1196,0.1204,0.121,0.1317,0.1301,0.1299,0.1297,0.1443,0.145,0.1456,0,0,0,0,0,0,0.1006,0.101,0.0995,0.0978,0.0972,0.1012,0.1039,0.1049,0.1112,0.1115,0.1141,0.1181,0.1204,0.1213,0.1366,0.1314,0.1298,0.1295,0.1437,0.1445,0.1453,0.1295,0,0,0,0,0,0,0.1006,0.1011,0.1035,0.0982,0.0974,0.0958,0.103,0.1039,0.1088,0.1114,0.118,0.1201,0.1213,0.1371,0.1364,0.131,0.1293,0.143,0.144,0.145,0.1293,0.1296,0.1299,0,0,0,0,0,0.1005,0.097,0.1038,0.104,0.1012,0.0959,0.0946,0.1001,0.1083,0.1099,0.124,0.1206,0.1432,0.1372,0.1363,0.1307,0.1425,0.1437,0.1449,0.1291,0.1296,0.1299,0,0,0,0,0,0,0.1,0.0984,0.1059,0.1041,0.1056,0.0997,0.098,0.1032,0.1124,0.1214,0.1247,0.1276,0.1382,0.1414,0.1347,0.1413,0.1428,0.1439,0.1312,0.1315,0.1319,0.1458,0.1291,0,0,0,0,0,0.1001,0.0966,0.0989,0.0985,0.0995,0.1008,0.0995,0.1069,0.113,0.1182,0.123,0.1332,0.1382,0.1427,0.1474,0.1471,0.1527,0.146,0.1463,0.1464,0.1592,0.1598,0.1608,0.1496,0.1496,0.1496,0,0,0.102,0.0983,0.0991,0.0977,0.0983,0.1011,0.103,0.1061,0.1132,0.118,0.1296,0.133,0.1403,0.1442,0.1488,0.1481,0.152,0.1479,0.1477,0.1609,0.1611,0.162,0.1629,0.1505,0.1503,0.1502,0,0,0.0992,0.1002,0.0989,0.0965,0.0994,0.1029,0.1075,0.1099,0.1171,0.1293,0.1338,0.1431,0.1486,0.1508,0.1533,0.1602,0.1541,0.1567,0.1654,0.165,0.1657,0.1664,0.1681,0.1691,0.1555,0.1554,0.1554,0,0.1035,0.0992,0.0981,0.0942,0.0955,0.1068,0.112,0.1155,0.1249,0.1308,0.1393,0.1511,0.1545,0.1566,0.1626,0.1593,0.1596,0.1578,0.164,0.1649,0.1659,0.1676,0.1688,0.1548,0.1549,0.155,0.155,0,0.1031,0.0966,0.0931,0.0965,0.1015,0.102,0.1139,0.1229,0.1374,0.1421,0.1542,0.1596,0.1674,0.1641,0.1676,0.1701,0.1677,0.1618,0.1586,0.1658,0.1674,0.1689,0.154,0.1542,0.1544,0.1545,0,0,0.1123,0.0975,0.0959,0.0936,0.1014,0.1054,0.1211,0.1344,0.1436,0.1561,0.1629,0.1747,0.1752,0.18,0.1737,0.1784,0.1805,0.175,0.1752,0.1698,0.1801,0.148,0.1467,0.1689,0.1693,0.1697,0.1754,0,0.1122,0.1007,0.1017,0.1018,0.0962,0.1116,0.1243,0.1407,0.1536,0.1603,0.1692,0.1759,0.1791,0.18,0.1834,0.1801,0.1857,0.1801,0.1816,0.1821,0.1463,0.1479,0.1374,0.139,0.177,0.1772,0.1774,0,0.108,0.0977,0.0973,0.094,0.0981,0.1084,0.1318,0.1439,0.158,0.1693,0.1773,0.1795,0.1863,0.1887,0.1951,0.1885,0.1913,0.1928,0.1924,0.1732,0.1531,0.1409,0.1405,0.1802,0.1799,0.1797,0.1796,0,0.1048,0.0916,0.0924,0.0898,0.0978,0.1095,0.1233,0.1444,0.1567,0.17,0.1795,0.1841,0.1906,0.1931,0.1953,0.1954,0.2008,0.1963,0.1735,0.1712,0.1704,0.167,0.2109,0.2109,0.2109,0.2108,0.2108,0,0.0951,0.093,0.0863,0.0856,0.0907,0.1034,0.122,0.1357,0.1546,0.1671,0.1779,0.1843,0.1946,0.1939,0.1942,0.1836,0.1976,0.1816,0.1712,0.1637,0.1599,0.2053,0.2045,0.2111,0.211,0.211,0.2109,0,0.0977,0.0899,0.0827,0.0855,0.0862,0.0931,0.1172,0.1296,0.151,0.1649,0.1713,0.188,0.1878,0.1875,0.1921,0.1822,0.1749,0.1702,0.1604,0.1484,0.1487,0.1473,0.1482,0.1472,0.1463,0.1455,0.1449,0,0.1017,0.0958,0.0847,0.0789,0.0814,0.0906,0.1016,0.1247,0.1378,0.1646,0.1681,0.1761,0.1685,0.1552,0.1472,0.1339,0.1529,0.1207,0.1208,0.1529,0.1428,0.1428,0.1426,0.1159,0.1151,0.1144,0.1138,0,0.11,0.1059,0.1002,0.0838,0.0832,0.0903,0.1027,0.1105,0.1416,0.1517,0.1623,0.155,0.1402,0.1201,0.1002,0.0908,0.1178,0.1052,0.1445,0.1251,0.1203,0.1109,0.1124,0.1079,0.1085,0.1089,0.1092,0.1095,0.1125,0.1087,0.0969,0.0851,0.0871,0.0948,0.102,0.112,0.1275,0.1398,0.1384,0.1258,0.113,0.073,0.0645,0.0637,0.0673,0.0702,0.0734,0.0772,0.0641,0.057,0.0308,0.031,0.0311,0.0312,0.0313,0,0.1103,0.1071,0.0998,0.0868,0.0978,0.1011,0.1103,0.1134,0.1211,0.12,0.1155,0.088,0.0602,0.0559,0.0441,0.03,0.0427,0.0312,0.0573,0.062,0.0666,0.0547,0.0182,0.0184,0.0185,0.0187,0,0,0.1032,0.0967,0.0955,0.1004,0.1046,0.1198,0.1251,0.1159,0.1115,0.0966,0.089,0.0656,0.0544,0.0473,0.033,0.0321,0.0519,0.0275,0.0347,0.0706,0.0758,0.0797,0.0646,0,0,0,0,0]},{"header":{"parameterUnit":"m.s-1","parameterCategory":2,"la1":30.2991,"la2":30.254,"lo1":-89.0895,"lo2":-89.0444,"dy":0.0017,"dx":0.0017,"nx":28,"ny":28,"refTime":"2024-06-27T21:00:00:Z","depth":"2","parameterNumber":3,"parameterNumberName":"V-component_of_CURRENTS"},"data":[0,0,0,0,0,0,0,0,0,0,0,0,0,0,0,0,0,0,0,0,0,0,0,0,0,0,0,0,0,0,0,0,0,0,0,0,0,0,0,0,0,0,0,0,0,0,0,0,0,0,0,0,0,0,0,0,0,0,0.0049,0.005,0,-0.0061,-0.0064,-0.0067,0.0008,0.0013,0.0018,0.0023,0.0136,0.0134,0.0132,0,0,0,0,0,0,0,0,0,0,0,0,0,0.012,0.0118,0.0049,0.005,0.005,-0.0061,-0.0064,-0.0067,0.0007,0.0014,0.002,0.0025,0.0136,0.0134,0.0132,0,0,0,0,0,0,0,0,0,0,0,0,0,0.0041,0.0117,0.0049,0.0087,0.009,-0.006,-0.0064,-0.0068,0.0006,0.0014,0.0021,0.0028,0.0137,0.0134,0.0132,-0.0035,0,0,0.0124,0.0123,0,0,0,0,0,0,0,0,0.0045,0.0036,0.0081,0.0084,0.0088,0.0011,0.0003,-0.004,0.0004,0.0019,0.0023,0.0032,0.012,0.0119,0.0053,-0.003,-0.0025,0.0124,0.0122,0.0121,0.012,0,0,0,0,0,0,0,0.0051,0.004,-0.0012,0.0081,0.0085,0.004,0.0037,-0.0008,0.0019,0.0019,0.0028,0.0042,0.0123,0.0055,0.0058,-0.0023,0.0124,0.0122,0.012,0.0119,0.019,0.0194,0,0,0,0,0,0,0.0102,0.0045,-0.0009,-0.0014,0.0105,0.0035,0.0031,0.0013,0.0015,0.0026,0.0035,0.0046,0.0056,0.0061,0.0063,0.0137,0.0121,0.0119,0.0117,0.0187,0.0191,0.0195,0,0,0,0,0,0,0.0103,0.0096,-0.0004,0.003,0.0017,0.0029,0.0007,0.0008,0.0014,0.0029,0.0042,0.0054,0.0062,0.0066,0.0172,0.0134,0.0118,0.0115,0.0183,0.0188,0.0193,0.0114,0,0,0,0,0,0,0.0104,0.0096,0.008,0.0032,0.0018,-0.0034,0.0001,0.0001,0.0015,0.0029,0.0046,0.006,0.0068,0.0176,0.0169,0.013,0.0113,0.0179,0.0185,0.0191,0.0112,0.0116,0.0119,0,0,0,0,0,0.0106,0.0082,0.0078,0.0073,0.0,-0.0032,-0.0047,-0.0025,0.001,0.0007,0.0095,0.0064,0.0212,0.0177,0.0168,0.0126,0.0176,0.0183,0.0191,0.0111,0.0115,0.0119,0,0,0,0,0,0,0.0124,0.0086,0.0083,0.0052,0.0038,-0.001,-0.0027,-0.0013,0.0024,0.0085,0.0095,0.0114,0.0198,0.0196,0.0157,0.0186,0.0189,0.0195,0.0131,0.0135,0.0138,0.0238,0.0111,0,0,0,0,0,0.0109,0.009,0.0051,0.0044,0.0017,-0.001,-0.0025,0.0017,0.0051,0.0072,0.0106,0.0163,0.0191,0.0206,0.0249,0.0225,0.0236,0.0209,0.0212,0.0214,0.0303,0.0248,0.0251,0.022,0.022,0.022,0,0,0.0135,0.0105,0.0104,0.0047,0.0014,0.0013,-0.0003,0.002,0.0085,0.0078,0.0181,0.0186,0.0209,0.0235,0.0263,0.0236,0.023,0.0224,0.0223,0.0314,0.0256,0.0258,0.026,0.0225,0.0224,0.0224,0,0,0.0143,0.0118,0.0076,0.0057,0.0046,0.0062,0.0087,0.0079,0.013,0.0228,0.024,0.0276,0.0315,0.03,0.0299,0.0348,0.0274,0.0321,0.0362,0.0303,0.0303,0.0304,0.0294,0.0295,0.0284,0.0284,0.0284,0,0.0146,0.0107,0.007,0.0022,0.006,0.0099,0.012,0.0145,0.0217,0.0265,0.032,0.0361,0.0365,0.0335,0.0375,0.0346,0.0318,0.0311,0.0297,0.0299,0.0301,0.0291,0.0292,0.0281,0.0281,0.0281,0.0282,0,0.0149,0.0092,0.0073,0.0055,0.0098,0.0128,0.02,0.0275,0.0381,0.0413,0.0484,0.0473,0.049,0.0445,0.0439,0.0398,0.0376,0.0315,0.0259,0.0297,0.0287,0.0289,0.0277,0.0278,0.0279,0.0279,0,0,0.016,0.0079,0.0069,0.0058,0.0135,0.0176,0.0318,0.0414,0.0497,0.0565,0.0611,0.0638,0.0591,0.0597,0.0489,0.0443,0.0402,0.0386,0.0383,0.0334,0.0292,0.0302,0.0305,0.0282,0.0283,0.0283,0.0265,0,0.0146,0.0064,0.0103,0.0146,0.0104,0.0249,0.0384,0.0519,0.0623,0.0676,0.0653,0.0688,0.0641,0.061,0.0545,0.0455,0.0413,0.0418,0.031,0.0311,0.0275,0.0311,0.0237,0.0218,0.0268,0.0268,0.0269,0,0.0121,0.0057,0.0071,0.0139,0.016,0.026,0.0501,0.0627,0.0727,0.0811,0.0803,0.0774,0.072,0.0673,0.056,0.0544,0.0465,0.0399,0.0392,0.0459,0.0329,0.0204,0.0221,0.0273,0.0273,0.0272,0.0272,0,0.0125,0.0057,0.0099,0.0116,0.0218,0.0323,0.0452,0.0635,0.077,0.0847,0.0921,0.0842,0.0826,0.0709,0.0603,0.0569,0.0479,0.0388,0.0334,0.0333,0.0301,0.0296,0.0352,0.0352,0.0352,0.0352,0.0352,0,0.0103,0.0105,0.0068,0.0083,0.0179,0.0301,0.0493,0.0615,0.0779,0.0919,0.093,0.0956,0.0843,0.0758,0.0626,0.0509,0.0488,0.0413,0.0341,0.0274,0.0268,0.0353,0.0353,0.0351,0.0351,0.0351,0.0351,0,0.0124,0.0088,0.0075,0.0129,0.016,0.0242,0.0489,0.0624,0.0808,0.0961,0.1004,0.1054,0.0956,0.0816,0.0645,0.0581,0.0441,0.0396,0.0366,0.0295,0.0334,0.0332,0.0364,0.0364,0.0365,0.0365,0.0365,0,0.0124,0.0105,0.0109,0.0101,0.012,0.0243,0.038,0.0605,0.0762,0.1007,0.1059,0.1039,0.0947,0.0732,0.061,0.0416,0.0388,0.0331,0.0291,0.0416,0.0341,0.0338,0.0335,0.0195,0.0194,0.0193,0.0192,0,0.0114,0.014,0.0141,0.0118,0.0171,0.0307,0.0473,0.0594,0.0913,0.1052,0.1189,0.1109,0.0895,0.064,0.0437,0.0328,0.036,0.0312,0.0409,0.022,0.0259,0.0185,0.0187,0.0184,0.0185,0.0186,0.0186,0.0186,0.0092,0.0102,0.0123,0.0126,0.0211,0.0392,0.054,0.0718,0.0966,0.1183,0.113,0.1015,0.0733,0.0378,0.0269,0.0284,0.0269,0.0237,0.0238,0.024,0.0241,0.0279,0.0212,0.0212,0.0213,0.0214,0.0215,0,0.0046,0.011,0.0132,0.0181,0.0339,0.0419,0.0664,0.0813,0.1054,0.1105,0.1143,0.0799,0.0475,0.0247,0.0217,0.018,0.0193,0.0194,0.015,0.0155,0.0161,0.0158,0.0106,0.0107,0.0108,0.0108,0,0,0.0005,0.0044,0.0103,0.0292,0.0419,0.071,0.0868,0.099,0.1055,0.1052,0.0973,0.071,0.0386,0.0314,0.0179,0.0172,0.0239,0.0214,0.0288,0.0256,0.0265,0.0146,0.0142,0,0,0,0,0]}],[{"header":{"parameterUnit":"m.s-1","parameterCategory":2,"la1":30.2991,"la2":30.254,"lo1":-89.0895,"lo2":-89.0444,"dy":0.0017,"dx":0.0017,"nx":28,"ny":28,"refTime":"2024-06-27T21:00:00:Z","depth":"4","parameterNumber":2,"parameterNumberName":"U-component_of_CURRENTS"},"data":[0,0,0,0,0,0,0,0,0,0,0,0,0,0,0,0,0,0,0,0,0,0,0,0,0,0,0,0,0,0,0,0,0,0,0,0,0,0,0,0,0,0,0,0,0,0,0,0,0,0,0,0,0,0,0,0,0,0,-0.0808,-0.0808,0,-0.081,-0.0811,-0.0811,-0.0849,-0.085,-0.085,-0.0851,-0.0912,-0.0913,-0.0914,0,0,0,0,0,0,0,0,0,0,0,0,0,-0.0773,-0.0775,-0.0808,-0.0808,-0.0807,-0.081,-0.0811,-0.0811,-0.0849,-0.085,-0.0851,-0.0851,-0.0911,-0.0913,-0.0914,0,0,0,0,0,0,0,0,0,0,0,0,0,-0.0786,-0.0775,-0.0808,-0.0824,-0.0826,-0.081,-0.0811,-0.0811,-0.0849,-0.085,-0.0851,-0.0852,-0.0911,-0.0913,-0.0914,-0.0902,0,0,-0.0918,-0.0919,0,0,0,0,0,0,0,0,-0.0786,-0.0788,-0.0822,-0.0823,-0.0825,-0.0828,-0.0821,-0.0843,-0.0848,-0.0843,-0.0851,-0.0852,-0.0886,-0.089,-0.0892,-0.0905,-0.0908,-0.0919,-0.0919,-0.092,-0.092,0,0,0,0,0,0,0,-0.0785,-0.0788,-0.0812,-0.0822,-0.0823,-0.081,-0.0814,-0.0825,-0.0862,-0.0844,-0.0846,-0.0841,-0.0888,-0.089,-0.0893,-0.0908,-0.0918,-0.092,-0.0921,-0.0921,-0.1016,-0.1017,0,0,0,0,0,0,-0.0781,-0.0787,-0.0812,-0.0812,-0.0804,-0.081,-0.0814,-0.0828,-0.0861,-0.0866,-0.084,-0.0843,-0.0887,-0.0892,-0.0896,-0.0952,-0.092,-0.0921,-0.0922,-0.1014,-0.1016,-0.1018,0,0,0,0,0,0,-0.078,-0.0784,-0.0812,-0.0796,-0.0798,-0.081,-0.0824,-0.0828,-0.0851,-0.0857,-0.0864,-0.0862,-0.0888,-0.0894,-0.0926,-0.0952,-0.0922,-0.0923,-0.1012,-0.1015,-0.1017,-0.102,0,0,0,0,0,0,-0.078,-0.0784,-0.0794,-0.0796,-0.0799,-0.0825,-0.0823,-0.0827,-0.0843,-0.0848,-0.0878,-0.0883,-0.0889,-0.0924,-0.0927,-0.0953,-0.0925,-0.101,-0.1013,-0.1016,-0.1018,-0.1022,-0.1026,0,0,0,0,0,-0.0779,-0.0783,-0.0795,-0.0797,-0.0813,-0.0826,-0.0827,-0.0839,-0.0844,-0.0863,-0.0879,-0.0883,-0.0947,-0.0926,-0.093,-0.0957,-0.1009,-0.1012,-0.1016,-0.1016,-0.1022,-0.1026,0,0,0,0,0,0,-0.0778,-0.0787,-0.08,-0.081,-0.0829,-0.0832,-0.0841,-0.0848,-0.0874,-0.0873,-0.0891,-0.0898,-0.0941,-0.095,-0.0926,-0.0997,-0.0984,-0.0988,-0.0983,-0.0988,-0.0992,-0.1009,-0.0926,0,0,0,0,0,-0.078,-0.08,-0.0803,-0.0826,-0.0827,-0.0839,-0.0845,-0.0849,-0.0865,-0.0877,-0.09,-0.0926,-0.0955,-0.0972,-0.0996,-0.1023,-0.1025,-0.105,-0.1054,-0.1057,-0.1077,-0.1079,-0.1084,-0.103,-0.103,-0.103,0,0,-0.0779,-0.08,-0.0804,-0.0829,-0.0842,-0.0849,-0.0848,-0.0857,-0.0873,-0.0878,-0.0918,-0.0939,-0.0967,-0.1003,-0.1024,-0.1015,-0.1075,-0.1062,-0.1064,-0.1083,-0.1083,-0.1088,-0.1092,-0.1032,-0.1032,-0.1032,0,0,-0.0798,-0.0815,-0.083,-0.0841,-0.0856,-0.0862,-0.087,-0.0878,-0.0895,-0.0923,-0.0938,-0.0972,-0.1015,-0.1039,-0.1056,-0.1098,-0.1098,-0.1117,-0.1148,-0.1149,-0.1152,-0.1156,-0.1163,-0.1167,-0.1117,-0.1117,-0.1117,0,-0.0804,-0.0821,-0.0838,-0.0853,-0.0854,-0.0874,-0.0874,-0.0897,-0.092,-0.0934,-0.0943,-0.1013,-0.1033,-0.108,-0.1107,-0.1106,-0.1112,-0.1119,-0.1151,-0.1155,-0.1158,-0.1164,-0.1169,-0.1118,-0.1118,-0.1118,-0.1118,0,-0.0822,-0.0833,-0.0844,-0.0876,-0.0885,-0.0889,-0.0904,-0.0934,-0.0954,-0.0968,-0.1021,-0.1048,-0.1108,-0.111,-0.1127,-0.1173,-0.1171,-0.1151,-0.113,-0.1163,-0.1169,-0.1173,-0.1119,-0.1118,-0.1118,-0.1118,0,0,-0.0841,-0.085,-0.0857,-0.0857,-0.0883,-0.0888,-0.0929,-0.0958,-0.0987,-0.1022,-0.1065,-0.1121,-0.1155,-0.1181,-0.1203,-0.1198,-0.1226,-0.1199,-0.1198,-0.1192,-0.124,-0.1128,-0.1122,-0.1208,-0.1209,-0.121,-0.1232,0,-0.0853,-0.0865,-0.0871,-0.0882,-0.0873,-0.09,-0.0939,-0.097,-0.1008,-0.1061,-0.1095,-0.1154,-0.1179,-0.1218,-0.1229,-0.1224,-0.1241,-0.1224,-0.1223,-0.1224,-0.1107,-0.1124,-0.1213,-0.1235,-0.1236,-0.1237,-0.1237,0,-0.0857,-0.0865,-0.0863,-0.0866,-0.0867,-0.0885,-0.0936,-0.0972,-0.1049,-0.1087,-0.1159,-0.1204,-0.1264,-0.1262,-0.1293,-0.1284,-0.1295,-0.1269,-0.1268,-0.1169,-0.1119,-0.1199,-0.1245,-0.1244,-0.1244,-0.1243,-0.1243,0,-0.0842,-0.0849,-0.0848,-0.0848,-0.087,-0.0884,-0.0911,-0.0976,-0.1015,-0.1121,-0.1174,-0.1241,-0.1307,-0.1305,-0.1321,-0.1316,-0.1311,-0.1289,-0.1199,-0.1192,-0.1284,-0.128,-0.1319,-0.1319,-0.1319,-0.1319,-0.1319,0,-0.0834,-0.0835,-0.0839,-0.0835,-0.0841,-0.0866,-0.0901,-0.0954,-0.1036,-0.1077,-0.1205,-0.1227,-0.1325,-0.1345,-0.1328,-0.1276,-0.1335,-0.1214,-0.1188,-0.1286,-0.1282,-0.1286,-0.1282,-0.132,-0.132,-0.132,-0.132,0,-0.0824,-0.0828,-0.0818,-0.0827,-0.0828,-0.0838,-0.0879,-0.0909,-0.1019,-0.1085,-0.1134,-0.1248,-0.1269,-0.1333,-0.1326,-0.1291,-0.1228,-0.1206,-0.1323,-0.1301,-0.1112,-0.1108,-0.1098,-0.1094,-0.109,-0.1088,-0.1085,0,-0.0809,-0.0808,-0.0803,-0.0781,-0.0783,-0.08,-0.0808,-0.0894,-0.0931,-0.104,-0.1058,-0.1151,-0.1216,-0.1117,-0.1175,-0.1166,-0.1157,-0.1149,-0.1128,-0.1113,-0.1089,-0.109,-0.1091,-0.108,-0.1079,-0.1079,-0.1078,0,-0.0788,-0.0804,-0.0796,-0.0743,-0.0729,-0.0722,-0.0742,-0.0763,-0.0868,-0.0984,-0.0952,-0.0965,-0.1005,-0.1005,-0.1064,-0.1026,-0.1148,-0.1115,-0.1122,-0.1102,-0.1092,-0.1072,-0.1076,-0.1067,-0.1068,-0.1069,-0.107,0,-0.077,-0.0759,-0.0738,-0.069,-0.0659,-0.0617,-0.0647,-0.0651,-0.0695,-0.0839,-0.078,-0.0855,-0.0938,-0.0927,-0.091,-0.094,-0.0925,-0.0889,-0.0907,-0.0921,-0.0857,-0.0819,-0.0689,0,0,0,0,0,-0.074,-0.0719,-0.0667,-0.0589,-0.0555,-0.0536,-0.0582,-0.063,-0.0735,-0.0685,-0.0743,-0.0747,-0.0755,-0.0754,-0.0757,-0.0862,-0.0955,-0.0859,-0.0928,-0.1004,-0.1017,-0.0962,0,0,0,0,0,0,-0.0714,-0.0691,-0.0655,-0.0517,-0.0442,-0.0399,-0.0421,-0.0495,-0.0477,-0.0586,-0.0584,-0.0669,-0.0691,-0.0742,-0.0724,-0.0743,-0.0763,-0.0912,-0.0909,-0.0997,-0.1009,-0.1019,-0.0967,0,0,0,0,0]},{"header":{"parameterUnit":"m.s-1","parameterCategory":2,"la1":30.2991,"la2":30.254,"lo1":-89.0895,"lo2":-89.0444,"dy":0.0017,"dx":0.0017,"nx":28,"ny":28,"refTime":"2024-06-27T21:00:00:Z","depth":"4","parameterNumber":3,"parameterNumberName":"V-component_of_CURRENTS"},"data":[0,0,0,0,0,0,0,0,0,0,0,0,0,0,0,0,0,0,0,0,0,0,0,0,0,0,0,0,0,0,0,0,0,0,0,0,0,0,0,0,0,0,0,0,0,0,0,0,0,0,0,0,0,0,0,0,0,0,0.003,0.003,0,0.006,0.0061,0.0061,0.0053,0.0052,0.0051,0.0051,0.0065,0.0066,0.0067,0,0,0,0,0,0,0,0,0,0,0,0,0,0.0069,0.0068,0.003,0.003,0.0031,0.006,0.0061,0.0061,0.0053,0.0052,0.0051,0.005,0.0065,0.0066,0.0067,0,0,0,0,0,0,0,0,0,0,0,0,0,0.0072,0.0068,0.003,0.0029,0.0029,0.006,0.0061,0.0062,0.0053,0.0052,0.0051,0.005,0.0064,0.0066,0.0068,0.0099,0,0,0.0072,0.0073,0,0,0,0,0,0,0,0,0.0072,0.0071,0.0029,0.0029,0.0029,0.0051,0.008,0.0073,0.0053,0.0045,0.0051,0.0049,0.0059,0.0061,0.0071,0.01,0.0101,0.0073,0.0074,0.0074,0.0075,0,0,0,0,0,0,0,0.0072,0.007,0.0043,0.0029,0.003,0.0063,0.0061,0.0079,0.0059,0.0046,0.0045,0.0047,0.0059,0.007,0.0071,0.0101,0.0073,0.0074,0.0075,0.0076,0.0084,0.0083,0,0,0,0,0,0,0.0061,0.0069,0.0042,0.0044,0.0047,0.0063,0.0061,0.0046,0.0059,0.0059,0.0048,0.0046,0.0067,0.0069,0.0072,0.0062,0.0074,0.0076,0.0077,0.0085,0.0084,0.0083,0,0,0,0,0,0,0.0061,0.0057,0.0041,0.0058,0.0058,0.0062,0.0046,0.0047,0.0051,0.006,0.006,0.0049,0.0067,0.0069,0.007,0.0064,0.0076,0.0078,0.0085,0.0084,0.0083,0.0073,0,0,0,0,0,0,0.0062,0.0057,0.0057,0.0056,0.0056,0.0041,0.0047,0.0048,0.0053,0.0052,0.0062,0.0062,0.0066,0.0068,0.0072,0.0066,0.0079,0.0086,0.0085,0.0084,0.0075,0.0072,0.007,0,0,0,0,0,0.0063,0.007,0.0056,0.0054,0.005,0.004,0.0043,0.0045,0.0054,0.0047,0.0054,0.0062,0.0061,0.0069,0.0074,0.0069,0.0087,0.0085,0.0084,0.0076,0.0073,0.007,0,0,0,0,0,0,0.0058,0.007,0.0055,0.0054,0.0035,0.0037,0.0052,0.0047,0.0051,0.0054,0.0063,0.0063,0.0057,0.0065,0.0073,0.0063,0.0072,0.0071,0.0064,0.0061,0.0059,0.0044,0.008,0,0,0,0,0,0.0062,0.0079,0.0064,0.0052,0.0058,0.0053,0.0058,0.0046,0.0046,0.0047,0.0049,0.0054,0.0057,0.006,0.006,0.0069,0.0075,0.0063,0.0061,0.0059,0.0048,0.0047,0.0044,0.0077,0.0077,0.0077,0,0,0.0046,0.006,0.006,0.0056,0.0056,0.004,0.0053,0.0049,0.0028,0.005,0.0038,0.0047,0.0055,0.0051,0.005,0.0058,0.0056,0.0057,0.0055,0.0045,0.0045,0.0042,0.0039,0.0076,0.0076,0.0077,0,0,0.0038,0.0044,0.0061,0.0051,0.005,0.0041,0.0035,0.0028,0.0026,0.0013,0.0021,0.0019,0.0029,0.0026,0.0031,0.0017,0.004,0.0023,0.0007,0.0007,0.0004,0.0002,0.0024,0.0023,0.0026,0.0026,0.0026,0,0.0036,0.0024,0.0055,0.0058,0.0044,0.0036,0.0014,0.0013,-0.0005,-0.0005,-0.0001,0.0005,0.0011,0.0011,0.0002,0.0011,0.0027,0.0022,0.0005,0.0002,0.0,0.0023,0.0023,0.0026,0.0026,0.0026,0.0026,0,0.0023,0.0011,0.002,0.0017,0.0005,-0.0015,-0.0027,-0.0044,-0.0045,-0.0046,-0.0048,-0.0037,-0.0039,-0.0031,-0.0015,-0.0024,-0.0001,0.0,0.0015,-0.0004,0.0022,0.0022,0.0025,0.0025,0.0025,0.0025,0,0,0.0023,0.0021,0.002,-0.0005,-0.0021,-0.004,-0.0066,-0.0089,-0.0104,-0.0102,-0.0111,-0.01,-0.0084,-0.008,-0.0059,-0.005,-0.0044,-0.0027,-0.0027,0.0,-0.0021,-0.0033,-0.0033,-0.0036,-0.0036,-0.0037,0.001,0,0.0,0.0001,-0.0003,-0.0059,-0.0076,-0.01,-0.0125,-0.0146,-0.015,-0.0159,-0.0129,-0.013,-0.0102,-0.0102,-0.0089,-0.0059,-0.0047,-0.0055,-0.0012,-0.0011,-0.0016,-0.0036,-0.0039,0.0011,0.0011,0.0011,0.0011,0,-0.0024,-0.0019,-0.0052,-0.0101,-0.0107,-0.0145,-0.0194,-0.0219,-0.022,-0.0213,-0.0202,-0.0182,-0.0166,-0.0146,-0.0102,-0.0103,-0.0071,-0.0041,-0.0039,-0.0052,-0.0025,0.0027,0.0011,0.0011,0.0011,0.0011,0.0011,0,-0.0042,-0.0069,-0.0096,-0.0115,-0.0159,-0.0188,-0.0212,-0.0232,-0.025,-0.0249,-0.026,-0.0225,-0.0216,-0.0176,-0.0119,-0.0112,-0.0062,-0.0049,-0.0026,-0.0025,-0.0021,-0.0019,-0.0033,-0.0033,-0.0034,-0.0034,-0.0034,0,-0.0063,-0.0095,-0.011,-0.0131,-0.019,-0.0203,-0.0257,-0.0277,-0.0287,-0.031,-0.0286,-0.0301,-0.0225,-0.019,-0.0132,-0.0077,-0.0077,-0.0039,-0.0025,-0.0023,-0.0023,-0.0019,-0.0018,-0.0032,-0.0032,-0.0033,-0.0033,0,-0.0086,-0.0089,-0.0141,-0.0179,-0.0207,-0.0242,-0.0296,-0.0329,-0.033,-0.0366,-0.0371,-0.0349,-0.0314,-0.0234,-0.016,-0.0105,-0.0048,-0.0029,-0.0021,-0.0005,-0.0001,-0.0001,-0.0004,-0.0004,-0.0005,-0.0005,-0.0005,0,-0.009,-0.0117,-0.0183,-0.0221,-0.0245,-0.0297,-0.0345,-0.0357,-0.0379,-0.0406,-0.0421,-0.0403,-0.0384,-0.0265,-0.0192,-0.0079,-0.0065,-0.0016,-0.0025,-0.0018,-0.0003,-0.0003,-0.0003,-0.0005,-0.0005,-0.0005,-0.0005,0,-0.0115,-0.0144,-0.0182,-0.0258,-0.0316,-0.0383,-0.043,-0.0444,-0.0461,-0.0467,-0.046,-0.042,-0.0376,-0.0283,-0.019,-0.0115,-0.0038,-0.0018,-0.0017,-0.0025,-0.0019,-0.0004,-0.0004,-0.0006,-0.0006,-0.0006,-0.0006,0,-0.0145,-0.0181,-0.0234,-0.0301,-0.0376,-0.0442,-0.0465,-0.0485,-0.05,-0.0494,-0.0497,-0.0453,-0.0411,-0.0305,-0.023,-0.0148,-0.0132,-0.0085,-0.008,-0.0078,-0.0118,-0.0122,-0.0139,0,0,0,0,0,-0.0159,-0.0203,-0.0274,-0.0352,-0.0422,-0.0457,-0.052,-0.0527,-0.0531,-0.0524,-0.0497,-0.0459,-0.0362,-0.0327,-0.0248,-0.0254,-0.013,-0.0159,-0.0076,-0.0011,-0.001,-0.0047,0,0,0,0,0,0,-0.018,-0.0236,-0.0275,-0.0369,-0.0424,-0.0506,-0.0537,-0.0548,-0.0522,-0.0511,-0.0455,-0.0424,-0.0328,-0.0397,-0.0239,-0.0221,-0.0154,-0.0113,-0.0111,-0.0011,-0.001,-0.001,-0.0048,0,0,0,0,0]}]]